TimeCST,TemperatureF,Dew PointF,Humidity,Sea Level PressureIn,VisibilityMPH,Wind Direction,Wind SpeedMPH,Gust SpeedMPH,PrecipitationIn,Events,Conditions,WindDirDegrees,DateUTC
12:53 AM,63.0,60.1,90,30.21,10.0,SE,3.5,-,N/A,,Mostly Cloudy,130,2013-01-11 06:53:00
1:53 AM,64.9,62.1,90,30.19,10.0,SSE,8.1,-,N/A,,Mostly Cloudy,160,2013-01-11 07:53:00
2:53 AM,64.9,61.0,87,30.13,10.0,SE,8.1,16.1,N/A,,Clear,140,2013-01-11 08:53:00
3:53 AM,64.9,61.0,87,30.10,10.0,SE,6.9,-,N/A,,Clear,140,2013-01-11 09:53:00
4:53 AM,64.9,62.1,90,30.12,10.0,South,3.5,-,N/A,,Clear,170,2013-01-11 10:53:00
5:53 AM,64.0,61.0,90,30.13,10.0,Calm,Calm,-,N/A,,Clear,0,2013-01-11 11:53:00
6:53 AM,60.1,59.0,96,30.17,6.0,North,3.5,-,N/A,,Partly Cloudy,360,2013-01-11 12:53:00
7:53 AM,63.0,62.1,97,30.20,8.0,Calm,Calm,-,N/A,,Scattered Clouds,0,2013-01-11 13:53:00
8:53 AM,66.0,62.1,87,30.21,7.0,SSE,4.6,-,0.00,Rain,Light Rain,150,2013-01-11 14:53:00
9:53 AM,70.0,64.0,81,30.21,10.0,South,10.4,-,0.00,,Mostly Cloudy,180,2013-01-11 15:53:00
10:53 AM,75.9,63.0,64,30.19,10.0,South,10.4,-,N/A,,Clear,170,2013-01-11 16:53:00
11:53 AM,75.9,62.1,62,30.17,10.0,South,12.7,-,N/A,,Clear,190,2013-01-11 17:53:00
12:53 PM,80.1,61.0,52,30.14,10.0,SSW,16.1,21.9,N/A,,Partly Cloudy,210,2013-01-11 18:53:00
2:53 PM,79.0,62.1,56,30.13,10.0,South,11.5,-,N/A,,Mostly Cloudy,180,2013-01-11 20:53:00
3:53 PM,77.0,62.1,60,30.12,10.0,South,8.1,-,N/A,,Mostly Cloudy,190,2013-01-11 21:53:00
4:53 PM,73.9,62.1,66,30.13,10.0,South,3.5,-,N/A,,Scattered Clouds,180,2013-01-11 22:53:00
5:53 PM,71.1,63.0,75,30.14,10.0,South,4.6,-,N/A,,Mostly Cloudy,190,2013-01-11 23:53:00
6:53 PM,70.0,62.1,76,30.15,10.0,South,8.1,-,N/A,,Clear,180,2013-01-12 00:53:00
7:53 PM,68.0,62.1,81,30.17,10.0,SSE,3.5,-,N/A,,Clear,160,2013-01-12 01:53:00
8:53 PM,64.9,62.1,90,30.17,10.0,SE,3.5,-,N/A,,Clear,140,2013-01-12 02:53:00
9:53 PM,66.0,62.1,87,30.16,10.0,Calm,Calm,-,N/A,,Clear,0,2013-01-12 03:53:00
10:53 PM,64.9,62.1,90,30.15,10.0,SSE,3.5,-,N/A,,Clear,160,2013-01-12 04:53:00
11:53 PM,63.0,62.1,97,30.14,8.0,SE,3.5,-,N/A,,Clear,130,2013-01-12 05:53:00